Simultaneous Nadir Overpasses (SNOs) Predictions

Prediction of SNOs between METOP-B and TERRA Satellite Orbit:

Table of predicted SNOs for the next 14.0 days since TLE Epoch: 12/31/2022
Index Date (METOP-B) Time (METOP-B) Lat,Lon (METOP-B) SZA (METOP-B ) Date (TERRA) Time (TERRA) Lat,Lon (TERRA) SZA (TERRA ) Distance(km) Time Diff (sec)
1 01/01/2023 11:01:27 -80.99,-129.05 74.47 01/01/2023 11:01:36 -80.98,-129.05 74.47 0.28 9
2 01/01/2023 11:52:05 81.03, 39.33 105.66 01/01/2023 11:50:57 81.03, 39.27 105.63 1.13 68
3 01/04/2023 03:13:06 -80.97, -12.19 74.78 01/04/2023 03:13:12 -80.97, -12.09 74.77 1.88 6
4 01/04/2023 04:03:44 81.02, 156.16 105.35 01/04/2023 04:02:33 81.02, 156.22 105.33 1.11 71
5 01/06/2023 19:24:45 -80.98, 104.97 75.09 01/06/2023 19:24:48 -80.98, 105.07 75.08 1.82 3
6 01/06/2023 20:15:17 81.11, -84.46 105.30 01/06/2023 20:14:03 81.18, -84.47 105.33 8.04 74
7 01/09/2023 11:36:24 -80.98,-137.93 75.47 01/09/2023 11:36:24 -80.97,-137.92 75.47 0.51 0
8 01/12/2023 02:57:32 80.79, 168.20 103.66 01/12/2023 02:58:46 80.71, 168.30 103.62 9.95 74



Historial Predications of SNOs between METOP-B and TERRA
